Location: Boiro
(42.6475°N, 8.8834°W)
Time: 09:27:17
(UTC+01:00)

Vanguard 3 - Pass Details

Date: 03 December 2021
Orbit: 508 x 3260 km, 33.3° (Epoch: 24 January)

Event Time Altitude Azimuth Distance (km) Brightness Sun altitude
Rises 06:25:40 0° 246° (WSW) 7,142 - -25.5°
Reaches altitude 10° 06:30:31 10° 243° (WSW) 6,189 - -24.6°
Exits shadow 06:32:49 15° 241° (WSW) 5,739 11.0 -24.2°
Maximum altitude 06:49:39 58° 171° (S) 3,219 10.1 -21.2°
Drops below altitude 10° 07:03:26 10° 97° (E) 4,626 12.2 -18.7°
Sets 07:06:28 0° 94° (E) 5,314 12.9 -18.1°
